Location: Newark
(21.0333°N, 105.8500°E)
Time: 19:27:37
(UTC+00:00)

N. Korean satellite - Visible Passes

Search period start: 05 December 2019 00:00
Search period end: 15 December 2019 00:00
Orbit: 456 x 506 km, 97.2° (Epoch: 05 December)

Date Brightness Start Highest point End Pass type
(mag) Time Alt. Az. Time Alt. Az. Time Alt. Az.
06 Dec 9.8 10:58:18 10° SW 11:00:58 19° W 11:03:38 10° NW visible
06 Dec 6.6 22:34:05 10° NNE 22:37:34 80° E 22:41:01 10° S visible
07 Dec 8.0 10:31:58 10° S 10:35:31 46° W 10:39:05 10° NNW visible
07 Dec 8.7 22:09:06 10° NE 22:12:09 28° E 22:15:09 10° SSE visible
08 Dec 10.0 21:45:25 10° ENE 21:46:39 12° E 21:47:53 10° ESE visible
09 Dec 10.4 11:17:26 10° WSW 11:18:05 10° W 11:18:45 10° W visible
09 Dec 6.6 22:51:14 10° N 22:54:35 49° WNW 22:57:54 10° SSW visible
10 Dec 9.3 10:49:32 10° SSW 10:52:36 25° W 10:55:41 10° NW visible
10 Dec 7.2 22:25:48 10° NNE 22:29:12 56° E 22:32:34 10° S visible
11 Dec 9.2 22:01:04 10° NE 22:03:44 21° E 22:06:23 10° SSE visible
13 Dec 10.0 11:07:44 10° SW 11:09:42 14° W 11:11:40 10° WNW visible
13 Dec 6.3 22:42:47 10° N 22:46:12 70° W 22:49:35 10° SSW visible
14 Dec 8.8 10:40:53 10° SSW 10:44:14 32° W 10:47:35 10° NW visible
14 Dec 7.9 22:17:32 10° NNE 22:20:47 40° E 22:24:00 10° S visible
